TITAN 3C TRANSTAGE DEB, 38704

Orbit data source: Space-Track

TITAN 3C TRANSTAGE DEB, 38704 is space debris in GEO originally from a launch on Thu, 26 Sep 1968 UTC launched from the Air Force Eastern Test Range (AFETR). Debris objects in space refer to the collection of defunct objects orbiting the Earth. Examples of debris include non-operational satellites, rocket bodies, and fragments generated from explosions, collisions, or faulty payload assembly.

Not visible in the next 10 days
Identifier
38704, 1968-081AE
Orbit
GEO
Country
Flag of USUS
Related business
Manufacturer
Unknown
Mission
Spacecraft
Bus & Motor
Unknown
Mass
Unknown
Launch date (UTC)
1968-09-26 (57 years ago)
Launch vehicle
Unknown
Launch site
Air Force Eastern Test Range (AFETR)
Object type
Payload
Rocket body
Debris
Shape & HBR
Unknown shape, 1.1 m
Radar Cross Section
Small (<0.1 m²)

Expand to show TLE details & history
Last TLE update: 1 day ago

TLE from 1 day ago
0 TITAN 3C TRANSTAGE DEB
1 38704U 68081AE  25305.12653405  .00000003  00000-0  00000-0 0  9999
2 38704   3.5898  64.4799 0211065 213.3183 145.3446  1.02193958 73670
Epoch: 2025-11-01T03:02Z
TLE epoch observation values (Epoch: 2025-11-01T03:02:12.541Z)
Latitude
-0°
Longitude
-21.7694°
Altitude
35,983.438 km
Speed
3.041 km/s
True Right ascension
04h 17m 46s
True Declination
0° 00' 00"
Sunlit
Object was in daylight at epoch
Visualization orbit readout
Latitude
Unknown
Longitude
Unknown
Altitude
Unknown
Speed
Unknown
Apparent Right ascension
Unknown
Apparent Declination
Unknown
Sunlit
N/A
Visualization observer readout
Local Sidereal Time
10:38:41
Azimuth
Unknown
Elevation
Unknown
Doppler factor
Unknown
Orbital elements
Apogee altitude
36,136.06 km
Perigee altitude
34,378.504 km
Semi-major axis
41,635.419 km
Eccentricity
0.02111
Inclination
3.5898°
RAAN
64.4799°
Arg. of periapsis
213.3183°
True anomaly
146.69056°
Mean anomaly
145.3446°
Eccentric anomaly
146.02048°
Mean motion
0.25548 °/min
Orbital period
1,409.14 mins
BSTAR
0
Loading maneuver chart data...
Computing Atmospheric mass density...

Documentation

Showing up to 5 results
|